Weather History for Girona, Spain

Change the Weather History Date:

Friday, August 2, 2013

  Actual Average Record
Temperature  
Mean Temperature 78 °F -  
Max Temperature 94 °F 84 °F 100 °F (2004)
Min Temperature 62 °F 62 °F 59 °F (2002)
Cooling Degree Days 13    
Growing Degree Days 28 (Base 50)    
Moisture  
Dew Point 58 °F    
Average Humidity 56    
Maximum Humidity 88    
Minimum Humidity 17    
Precipitation  
Precipitation 0.00 in 0.07 in - ()
Sea Level Pressure  
Sea Level Pressure 30.00 in    
Wind  
Wind Speed 7 mph ()    
Max Wind Speed 22 mph    
Max Gust Speed -    
Visibility 19.0 miles    
Events      
Averages and records for this station are not official NWS values.
T = Trace of Precipitation, MM = Missing Value Source: Averaged Metar Reports

Daily Weather History Graph

Daily Weather History Graph

Search for Another Location

Airport:

Trip Planner

Search our weather history database for the weather conditions in past years. The results will help you decide how hot, cold, wet, or windy it might be!

Date:

Astronomy

Aug. 02, 2013 Rise Set
Actual Time 6:43 AM CEST 9:06 PM CEST
Civil Twilight 6:12 AM CEST 9:37 PM CEST
Nautical Twilight 5:33 AM CEST 10:16 PM CEST
Astronomical Twilight 4:49 AM CEST 10:59 PM CEST
Moon 2:52 AM CEST (8/2) 5:52 PM CEST (8/2)
Length of Visible Light 15h 25m
Length of Day
14h 22m
Waning Crescent, 17% of the Moon is Illuminated
Aug 2
Waning Crescent
Aug 6
New
Aug 14
First Quarter
Aug 21
Full
Aug 28
Last Quarter

Hourly Weather History & Observations

Time (CEST) Temp. Heat Index Dew Point Humidity Pressure Visibility Wind Dir Wind Speed Gust Speed Precip Events Conditions
12:00 AM 73.4 °F - 66.2 °F 78% 30.01 in - South 6.9 mph - N/A   Clear
12:30 AM 71.6 °F - 64.4 °F 78% 30.01 in - SSW 4.6 mph - N/A   Clear
1:00 AM 71.6 °F - 64.4 °F 78% 30.01 in - South 5.8 mph - N/A   Clear
1:30 AM 71.6 °F - 62.6 °F 73% 30.01 in - Variable 2.3 mph - N/A   Clear
2:00 AM 69 °F - 61 °F 68% 30.00 in - Calm Calm - -  
2:00 AM 69.8 °F - 60.8 °F 73% 30.01 in - Variable 1.2 mph - N/A   Clear
2:30 AM 66.2 °F - 60.8 °F 83% 30.01 in - Calm Calm - N/A   Clear
3:00 AM 66.2 °F - 60.8 °F 83% 30.01 in - Calm Calm - N/A   Clear
3:30 AM 66.2 °F - 60.8 °F 83% 30.01 in - Calm Calm - N/A   Clear
4:00 AM 62.6 °F - 59.0 °F 88% 30.01 in - Calm Calm - N/A   Clear
4:30 AM 62.6 °F - 59.0 °F 88% 29.98 in - Calm Calm - N/A   Clear
5:00 AM 62.6 °F - 59.0 °F 88% 29.98 in - Calm Calm - N/A   Clear
5:30 AM 62.6 °F - 59.0 °F 88% 29.98 in - Calm Calm - N/A   Clear
6:00 AM 62.6 °F - 57.2 °F 82% 29.98 in - WSW 5.8 mph - N/A   Clear
6:30 AM 64.4 °F - 57.2 °F 77% 29.98 in - WSW 4.6 mph - N/A   Clear
7:00 AM 64.4 °F - 57.2 °F 77% 30.01 in - Variable 2.3 mph - N/A   Clear
7:30 AM 62.6 °F - 57.2 °F 82% 30.01 in - Calm Calm - N/A   Clear
8:00 AM 66 °F - 59 °F 70% 29.99 in 19 mi Calm Calm - -  
8:00 AM 66.2 °F - 57.2 °F 73% 30.01 in - Calm Calm - N/A   Clear
8:30 AM 68.0 °F - 57.2 °F 68% 30.01 in - Variable 2.3 mph - N/A   Clear
9:00 AM 71.6 °F - 59.0 °F 64% 30.01 in - Calm Calm - N/A   Clear
9:30 AM 77.0 °F - 55.4 °F 47% 30.01 in - South 6.9 mph - N/A   Clear
10:00 AM 78.8 °F - 59.0 °F 51% 30.04 in - SSW 8.1 mph - N/A   Clear
10:30 AM 80.6 °F 80.8 °F 57.2 °F 45% 30.04 in - South 9.2 mph - N/A   Clear
11:00 AM 84.2 °F - 50.0 °F 30% 30.04 in - SSW 11.5 mph - N/A   Clear
11:30 AM 87.8 °F - 50.0 °F 27% 30.04 in - SSW 16.1 mph - N/A   Clear
12:00 PM 87.8 °F - 50.0 °F 27% 30.04 in - SSW 17.3 mph - N/A   Clear
12:30 PM 89.6 °F - 50.0 °F 26% 30.01 in - SSW 19.6 mph - N/A   Clear
1:00 PM 89.6 °F - 50.0 °F 26% 30.01 in - SSW 20.7 mph - N/A   Clear
1:30 PM 89.6 °F 87.7 °F 55.4 °F 31% 30.01 in - South 19.6 mph - N/A   Clear
2:00 PM 94 °F - 55 °F 17% 29.96 in 19 mi South 20.7 mph - -   Clear
2:00 PM 91.4 °F 89.1 °F 53.6 °F 28% 30.01 in - South 20.7 mph - N/A   Clear
2:30 PM 91.4 °F 89.4 °F 55.4 °F 29% 30.01 in - South 21.9 mph - N/A   Clear
3:00 PM 89.6 °F 87.7 °F 55.4 °F 31% 29.98 in - South 20.7 mph - N/A   Clear
3:30 PM 89.6 °F 87.7 °F 55.4 °F 31% 29.98 in - South 20.7 mph - N/A   Clear
4:00 PM 89.6 °F 87.3 °F 53.6 °F 29% 29.98 in - South 20.7 mph - N/A   Clear
4:30 PM 89.6 °F 87.7 °F 55.4 °F 31% 29.98 in - South 19.6 mph - N/A   Clear
5:00 PM 91.4 °F 89.1 °F 53.6 °F 28% 29.98 in - South 19.6 mph - N/A   Clear
5:30 PM 89.6 °F - 51.8 °F 27% 29.98 in - South 20.7 mph - N/A   Clear
6:00 PM 89.6 °F 87.3 °F 53.6 °F 29% 29.98 in - South 21.9 mph - N/A   Clear
6:30 PM 86.0 °F 84.2 °F 53.6 °F 33% 29.98 in - SSW 21.9 mph - N/A   Clear
7:00 PM 86.0 °F - 51.8 °F 31% 29.98 in - SSW 20.7 mph - N/A   Clear
7:30 PM 84.2 °F 83.5 °F 57.2 °F 40% 29.98 in - SSW 19.6 mph - N/A   Clear
8:00 PM 84 °F - 63 °F 38% 29.94 in 19 mi South 16.1 mph - -   Clear
8:00 PM 82.4 °F 83.4 °F 62.6 °F 51% 29.98 in - South 16.1 mph - N/A   Clear
8:30 PM 80.6 °F 81.8 °F 62.6 °F 54% 29.98 in - South 16.1 mph - N/A   Clear
9:00 PM 78.8 °F - 66.2 °F 65% 29.98 in - South 16.1 mph - N/A   Clear
9:30 PM 77.0 °F - 66.2 °F 69% 30.01 in - South 13.8 mph - N/A   Clear
10:00 PM 75.2 °F - 68.0 °F 78% 30.01 in - SSW 8.1 mph - N/A   Clear
10:30 PM 75.2 °F - 68.0 °F 78% 30.04 in - SSW 5.8 mph - N/A   Clear
11:00 PM 73.4 °F - 66.2 °F 78% 30.04 in - SSW 9.2 mph - N/A   Clear
11:30 PM 73.4 °F - 66.2 °F 78% 30.04 in - WSW 4.6 mph - N/A   Clear